Location: Allentsteig
(48.6833°N, 15.3167°E)
Time: 10:31:52
(UTC+00:00)

CZ-2C R/B - Pass Details

Date: 18 September 2020
Orbit: 785 x 870 km, 98.2° (Epoch: 24 October)

Event Time Altitude Azimuth Distance (km) Brightness Sun altitude
Rises 19:15:49 0° 11° (N) 3,408 6.1 -21.5°
Reaches altitude 10° 19:18:12 10° 8° (N) 2,480 5.4 -21.9°
Maximum altitude 19:23:38 62° 289° (WNW) 963 3.2 -22.6°
Drops below altitude 10° 19:29:07 10° 210° (SSW) 2,503 5.1 -23.4°
Sets 19:31:32 0° 207° (SSW) 3,441 5.8 -23.8°
